Torna al catalogo

STARLINK-5333

AttivoComunicazioniVLEO
NORAD 56507·PAYLOAD·🇺🇸 United States

Lanciato May 14, 2023 da Cape Canaveral Space Force Station

Loading…

Prossimi Passaggi (prossime 24 ore)

TLE

AggiornatoSource: CelesTrak SupGP

Epoca: Sep 15, 2026, 01:42 UTC

1 56507C 23065E   26258.07131944 -.00008559  00000+0 -31008-3 0  2582
2 56507  42.9996 190.2014 0001334 267.2529 301.1430 15.27573729    16

Traccia STARLINK-5333 in tempo reale con AllMySat

Download on the App Store